This is the latest recevied weather packets stored in our database for station/object KN6WGU. If no packets are shown the sender has not sent any weather packets the latest 10 day(s).
| Time | Temp. | Humidity | Pressure | Rain* | Wind** | Luminosity | Snow |
|---|---|---|---|---|---|---|---|
| 1787931081 | 22.22° C | 66% | 1014.7 hPa | 0 mm | - | 47 W/m² | - |
| 1787930774 | 22.22° C | 66% | 1014.8 hPa | 0 mm | - | 48 W/m² | - |
| 1787930474 | 22.22° C | 65% | 1014.8 hPa | 0 mm | - | 90 W/m² | - |
| 1787930169 | 22.78° C | 64% | 1014.7 hPa | 0 mm | - | 49 W/m² | - |
| 1787929868 | 22.22° C | 64% | 1014.7 hPa | 0 mm | - | 48 W/m² | - |
| 1787929563 | 22.78° C | 65% | 1014.7 hPa | 0 mm | - | 49 W/m² | - |
| 1787929262 | 22.22° C | 70% | 1014.7 hPa | 0 mm | - | 53 W/m² | - |
| 1787928960 | 21.67° C | 69% | 1014.8 hPa | 0 mm | - | 56 W/m² | - |
| 1787928655 | 22.22° C | 68% | 1014.7 hPa | 0 mm | - | 64 W/m² | - |
| 1787928354 | 21.67° C | 69% | 1014.7 hPa | 0 mm | - | 110 W/m² | - |
| 1787928053 | 22.22° C | 69% | 1014.9 hPa | 0 mm | - | 83 W/m² | - |
| 1787927753 | 22.22° C | 70% | 1014.7 hPa | 0 mm | - | 145 W/m² | - |
| 1787927453 | 21.67° C | 69% | 1014.5 hPa | 0 mm | - | 89 W/m² | - |
| 1787927149 | 21.67° C | 71% | 1014.6 hPa | 0 mm | - | 71 W/m² | - |
| 1787926849 | 22.22° C | 70% | 1014.6 hPa | 0 mm | - | 78 W/m² | - |
| 1787926549 | 22.22° C | 69% | 1014.5 hPa | 0 mm | - | 113 W/m² | - |
| 1787926247 | 22.22° C | 70% | 1014.4 hPa | 0 mm | - | 194 W/m² | - |
| 1787925942 | 22.22° C | 69% | 1014.2 hPa | 0 mm | - | 146 W/m² | - |
| 1787925637 | 21.67° C | 71% | 1014.2 hPa | 0 mm | - | 183 W/m² | - |
| 1787925332 | 21.67° C | 71% | 1014.3 hPa | 0 mm | - | 80 W/m² | - |
| 1787925031 | 22.22° C | 71% | 1014 hPa | 0 mm | - | 116 W/m² | - |
| 1787924725 | 22.22° C | 70% | 1014.1 hPa | 0 mm | - | 121 W/m² | - |
| 1787924425 | 21.67° C | 71% | 1014.1 hPa | 0 mm | - | 111 W/m² | - |
| 1787924120 | 21.67° C | 71% | 1013.7 hPa | 0 mm | - | 93 W/m² | - |
| 1787923815 | 21.67° C | 71% | 1014 hPa | 0 mm | - | 72 W/m² | - |
* Rain latest hour (hover to see other rain measurements)
** Current wind speed in m/s (hover to see current wind gust speed)